This is the latest recevied weather packets stored in our database for station/object KD5FHA. If no packets are shown the sender has not sent any weather packets the latest 1 day(s).
| Time | Temp. | Humidity | Pressure | Rain* | Wind** | Luminosity | Snow |
|---|---|---|---|---|---|---|---|
| 1777989907 | 23.33° C | 82% | 1005.9 hPa | 0 mm | 4.92 m/s, 215° | 210 W/m² | - |
| 1777989604 | 23.33° C | 83% | 1006.2 hPa | 0 mm | 3.13 m/s, 207° | 202 W/m² | - |
| 1777989300 | 22.78° C | 83% | 1006.1 hPa | 0 mm | 4.92 m/s, 211° | 173 W/m² | - |
| 1777988996 | 22.78° C | 83% | 1006 hPa | 0 mm | 6.26 m/s, 200° | 160 W/m² | - |
| 1777988693 | 22.78° C | 84% | 1005.9 hPa | 0 mm | 1.34 m/s, 204° | 133 W/m² | - |
| 1777988389 | 22.78° C | 84% | 1006 hPa | 0 mm | 4.02 m/s, 195° | 129 W/m² | - |
| 1777988087 | 22.78° C | 85% | 1005.8 hPa | 0 mm | 0.45 m/s, 141° | 147 W/m² | - |
| 1777987782 | 22.78° C | 85% | 1005.8 hPa | 0 mm | 3.13 m/s, 180° | 136 W/m² | - |
| 1777987479 | 22.22° C | 86% | 1005.5 hPa | 0 mm | 1.79 m/s, 168° | 130 W/m² | - |
| 1777987177 | 22.22° C | 86% | 1005.8 hPa | 0 mm | 4.02 m/s, 198° | 123 W/m² | - |
| 1777986874 | 21.67° C | 87% | 1005.7 hPa | 0 mm | 1.34 m/s, 164° | 116 W/m² | - |
| 1777986572 | 21.67° C | 87% | 1006 hPa | 0 mm | 3.58 m/s, 196° | 80 W/m² | - |
| 1777986270 | 21.67° C | 87% | 1005.8 hPa | 0 mm | 1.79 m/s, 180° | 80 W/m² | - |
| 1777985966 | 21.67° C | 87% | 1005.8 hPa | 0 mm | 1.34 m/s, 195° | 77 W/m² | - |
| 1777985664 | 21.67° C | 88% | 1005.7 hPa | 0 mm | 1.79 m/s, 148° | 77 W/m² | - |
| 1777985360 | 21.67° C | 88% | 1005.8 hPa | 0 mm | 1.34 m/s, 180° | 70 W/m² | - |
| 1777985057 | 21.11° C | 89% | 1005.7 hPa | 0 mm | 2.24 m/s, 204° | 81 W/m² | - |
| 1777984753 | 21.11° C | 89% | 1005.5 hPa | 0 mm | 3.58 m/s, 196° | 60 W/m² | - |
| 1777984450 | 21.11° C | 89% | 1005.5 hPa | 0 mm | 4.02 m/s, 199° | 49 W/m² | - |
| 1777984146 | 21.11° C | 89% | 1005.3 hPa | 0 mm | 1.79 m/s, 216° | 39 W/m² | - |
| 1777983843 | 21.11° C | 89% | 1005.4 hPa | 0 mm | 2.24 m/s, 197° | 33 W/m² | - |
| 1777983540 | 21.11° C | 90% | 1005.2 hPa | 0 mm | 2.68 m/s, 184° | 31 W/m² | - |
| 1777983237 | 21.11° C | 90% | 1005.3 hPa | 0 mm | 2.68 m/s, 178° | 26 W/m² | - |
| 1777982933 | 21.11° C | 90% | 1005.1 hPa | 0 mm | 1.34 m/s, 158° | 20 W/m² | - |
| 1777982629 | 20.56° C | 90% | 1005.1 hPa | 0 mm | 1.79 m/s, 188° | 16 W/m² | - |
* Rain latest hour (hover to see other rain measurements)
** Current wind speed in m/s (hover to see current wind gust speed)